N372FX KLAX-KLAS

Flight info

Callsign N372FX
Flight time N/A
Altitude 29000
Route ORCKA5 MISEN RNDRZ4
Aircraft CL60/M-SADE3FGHIJ3J4J7P2RWXY/HB1D1

Departure

Time 2026-04-21 21:53
Airport Los Angeles International Airport (KLAX)

Arrival

Time N/A
Airport Harry Reid International Airport (KLAS)
Time Latitude Longitude Altitude Speed Heading
2026-04-21 21:27 33.93286 -118.39742 122 ft 0 kts 306°
2026-04-21 21:41 33.93286 -118.39743 122 ft 0 kts 306°
2026-04-21 21:41 33.93310 -118.39757 121 ft 7 kts 353°
2026-04-21 21:41 33.93326 -118.39758 121 ft 0 kts
2026-04-21 21:41 33.93327 -118.39758 121 ft 0 kts
2026-04-21 21:42 33.93333 -118.39756 120 ft 2 kts
2026-04-21 21:42 33.93345 -118.39756 120 ft 0 kts 339°
2026-04-21 21:44 33.93347 -118.39758 120 ft 1 kts 329°
2026-04-21 21:44 33.93368 -118.39780 120 ft 6 kts 320°
2026-04-21 21:44 33.93423 -118.39815 119 ft 11 kts 358°
2026-04-21 21:44 33.93466 -118.39719 117 ft 17 kts 83°
2026-04-21 21:45 33.93481 -118.39555 113 ft 22 kts 81°
2026-04-21 21:45 33.93503 -118.39347 110 ft 26 kts 84°
2026-04-21 21:45 33.93524 -118.39139 108 ft 24 kts 83°
2026-04-21 21:45 33.93546 -118.38922 108 ft 27 kts 84°
2026-04-21 21:46 33.93568 -118.38715 107 ft 22 kts 81°
2026-04-21 21:46 33.93588 -118.38515 106 ft 25 kts 83°
2026-04-21 21:46 33.93606 -118.38341 105 ft 9 kts 81°
2026-04-21 21:46 33.93616 -118.38305 104 ft 3 kts 59°
2026-04-21 21:47 33.93623 -118.38294 104 ft 0 kts 45°
2026-04-21 21:49 33.93633 -118.38285 104 ft 4 kts 30°
2026-04-21 21:50 33.93648 -118.38279 104 ft 0 kts
2026-04-21 21:51 33.93668 -118.38281 104 ft 5 kts 354°
2026-04-21 21:52 33.93720 -118.38311 104 ft 9 kts 301°
2026-04-21 21:52 33.93727 -118.38378 104 ft 5 kts 259°
2026-04-21 21:52 33.93682 -118.38776 107 ft 91 kts 262°
2026-04-21 21:52 33.93583 -118.39822 141 ft 152 kts 265°
2026-04-21 21:53 33.93460 -118.41222 465 ft 176 kts 260°
2026-04-21 21:53 33.93233 -118.42656 1180 ft 182 kts 255°
2026-04-21 21:53 33.92938 -118.44232 1762 ft 199 kts 257°
2026-04-21 21:53 33.92687 -118.45911 2439 ft 208 kts 262°
2026-04-21 21:54 33.92336 -118.47590 3190 ft 210 kts 249°
2026-04-21 21:54 33.91765 -118.49219 3971 ft 211 kts 247°
2026-04-21 21:54 33.91201 -118.50834 4763 ft 210 kts 247°
2026-04-21 21:54 33.90641 -118.52475 5490 ft 212 kts 247°
2026-04-21 21:55 33.90096 -118.54102 6229 ft 212 kts 247°
2026-04-21 21:55 33.89554 -118.55749 6916 ft 213 kts 248°
2026-04-21 21:55 33.89000 -118.57420 7635 ft 212 kts 245°
2026-04-21 21:55 33.88132 -118.58807 8328 ft 210 kts 217°
2026-04-21 21:56 33.86708 -118.59248 8951 ft 222 kts 181°
2026-04-21 21:56 33.85289 -118.58428 9503 ft 243 kts 145°
2026-04-21 21:56 33.84099 -118.56731 9748 ft 280 kts 127°
2026-04-21 21:56 33.83385 -118.54449 10166 ft 308 kts 103°
2026-04-21 21:57 33.83523 -118.51782 10757 ft 325 kts 74°
2026-04-21 21:57 33.84686 -118.49428 11381 ft 332 kts 46°
2026-04-21 21:57 33.86360 -118.47424 11988 ft 338 kts 43°
2026-04-21 21:57 33.88065 -118.45396 12318 ft 355 kts 43°
2026-04-21 21:58 33.89901 -118.43201 12378 ft 378 kts 43°
2026-04-21 21:58 33.91822 -118.40901 12592 ft 391 kts 43°
2026-04-21 21:58 33.93760 -118.38572 13176 ft 392 kts 43°
2026-04-21 21:58 33.95692 -118.36246 13726 ft 393 kts 43°
2026-04-21 21:59 33.97634 -118.33907 14230 ft 396 kts 43°
2026-04-21 21:59 33.99608 -118.31518 14748 ft 398 kts 43°
2026-04-21 21:59 34.01460 -118.29037 15263 ft 400 kts 53°
2026-04-21 21:59 34.03033 -118.26228 15764 ft 402 kts 57°
2026-04-21 22:00 34.04593 -118.23415 16266 ft 403 kts 55°
2026-04-21 22:00 34.06191 -118.20622 16782 ft 403 kts 55°
2026-04-21 22:00 34.07789 -118.17821 17291 ft 404 kts 55°
2026-04-21 22:00 34.09385 -118.14987 17792 ft 418 kts 56°
2026-04-21 22:01 34.11054 -118.12007 18310 ft 434 kts 56°
2026-04-21 22:01 34.12795 -118.08914 18807 ft 450 kts 55°
2026-04-21 22:01 34.14584 -118.05752 19294 ft 464 kts 55°
2026-04-21 22:01 34.16449 -118.02447 19796 ft 476 kts 55°
2026-04-21 22:02 34.18322 -117.99116 20297 ft 487 kts 55°
2026-04-21 22:02 34.20257 -117.95665 20810 ft 497 kts 55°
2026-04-21 22:02 34.22222 -117.92161 21310 ft 506 kts 56°
2026-04-21 22:02 34.24227 -117.88587 21821 ft 513 kts 55°
2026-04-21 22:03 34.26256 -117.84969 22331 ft 520 kts 55°
2026-04-21 22:03 34.28292 -117.81338 22821 ft 525 kts 56°
2026-04-21 22:03 34.30390 -117.77598 23063 ft 532 kts 55°
2026-04-21 22:03 34.32466 -117.73885 23086 ft 532 kts 55°
2026-04-21 22:04 34.34544 -117.70163 23081 ft 528 kts 56°
2026-04-21 22:04 34.36661 -117.66503 23084 ft 526 kts 53°
2026-04-21 22:04 34.38817 -117.62943 23316 ft 522 kts 53°
2026-04-21 22:04 34.40962 -117.59369 23848 ft 522 kts 53°
2026-04-21 22:05 34.43029 -117.55888 24324 ft 527 kts 54°
2026-04-21 22:05 34.45208 -117.52215 24837 ft 532 kts 54°
2026-04-21 22:05 34.47350 -117.48624 25326 ft 536 kts 53°
2026-04-21 22:05 34.49542 -117.44950 25818 ft 540 kts 53°
2026-04-21 22:06 34.51747 -117.41234 26336 ft 542 kts 54°
2026-04-21 22:06 34.53959 -117.37505 26859 ft 544 kts 53°
2026-04-21 22:06 34.56166 -117.33790 27370 ft 546 kts 54°
2026-04-21 22:06 34.58403 -117.30019 27879 ft 546 kts 54°
2026-04-21 22:07 34.60647 -117.26228 28379 ft 547 kts 54°
2026-04-21 22:07 34.62853 -117.22496 28853 ft 545 kts 54°
2026-04-21 22:07 34.65082 -117.18716 29053 ft 548 kts 54°
2026-04-21 22:08 34.69572 -117.11102 29049 ft 542 kts 55°
2026-04-21 22:08 34.73953 -117.03661 29035 ft 537 kts 55°
2026-04-21 22:09 34.78342 -116.96195 29027 ft 537 kts 55°
2026-04-21 22:09 34.82688 -116.88770 29046 ft 535 kts 55°
2026-04-21 22:10 34.87039 -116.81341 29022 ft 536 kts 54°
2026-04-21 22:10 34.91387 -116.73899 29024 ft 536 kts 55°
2026-04-21 22:11 34.95668 -116.66377 28980 ft 535 kts 56°
2026-04-21 22:11 34.99918 -116.58833 28947 ft 536 kts 56°
2026-04-21 22:12 35.04156 -116.51331 28667 ft 541 kts 56°
2026-04-21 22:12 35.06321 -116.47473 28094 ft 536 kts 56°
2026-04-21 22:12 35.08414 -116.43742 27723 ft 527 kts 56°
2026-04-21 22:12 35.10531 -116.40105 27292 ft 522 kts 51°
2026-04-21 22:13 35.12974 -116.36831 26877 ft 518 kts 45°
2026-04-21 22:13 35.15504 -116.33632 26441 ft 514 kts 46°
2026-04-21 22:13 35.17788 -116.30678 26055 ft 510 kts 47°
2026-04-21 22:13 35.20257 -116.27467 25626 ft 507 kts 46°
2026-04-21 22:14 35.22279 -116.24843 25283 ft 504 kts 47°
2026-04-21 22:14 35.24911 -116.21287 24818 ft 500 kts 49°
2026-04-21 22:14 35.27207 -116.18121 24377 ft 496 kts 49°
2026-04-21 22:14 35.29516 -116.14964 23946 ft 493 kts 49°
2026-04-21 22:15 35.31799 -116.11850 23516 ft 489 kts 49°
2026-04-21 22:15 35.34053 -116.08755 23072 ft 486 kts 49°
2026-04-21 22:15 35.36322 -116.05630 22411 ft 484 kts 49°
2026-04-21 22:15 35.38494 -116.02640 21837 ft 476 kts 49°
2026-04-21 22:16 35.40747 -115.99545 21193 ft 472 kts 49°
2026-04-21 22:16 35.42901 -115.96587 20592 ft 466 kts 49°
2026-04-21 22:16 35.45058 -115.93617 19987 ft 461 kts 49°
2026-04-21 22:16 35.47192 -115.90672 19367 ft 456 kts 49°
2026-04-21 22:17 35.49309 -115.87749 18766 ft 451 kts 49°
2026-04-21 22:17 35.51363 -115.84913 18173 ft 447 kts 49°
2026-04-21 22:17 35.53439 -115.82044 17576 ft 442 kts 49°
2026-04-21 22:17 35.55470 -115.79232 17091 ft 434 kts 49°
2026-04-21 22:18 35.57474 -115.76426 16716 ft 431 kts 52°
2026-04-21 22:18 35.59339 -115.73618 16970 ft 426 kts 51°
2026-04-21 22:18 35.61200 -115.70734 16943 ft 436 kts 55°
2026-04-21 22:18 35.63112 -115.67750 16681 ft 437 kts 51°
2026-04-21 22:19 35.65058 -115.64905 16359 ft 434 kts 52°
2026-04-21 22:19 35.66960 -115.62028 16028 ft 425 kts 54°
2026-04-21 22:19 35.68677 -115.59090 15881 ft 421 kts 57°
2026-04-21 22:19 35.70529 -115.56226 15539 ft 427 kts 51°
2026-04-21 22:20 35.72527 -115.53560 15312 ft 422 kts 49°
2026-04-21 22:20 35.74419 -115.50772 15391 ft 418 kts 56°
2026-04-21 22:20 35.76026 -115.47773 15308 ft 421 kts 61°
2026-04-21 22:20 35.77798 -115.44868 15203 ft 423 kts 47°
2026-04-21 22:21 35.80133 -115.42653 15090 ft 423 kts 28°
2026-04-21 22:21 35.82902 -115.41398 14949 ft 420 kts
2026-04-21 22:21 35.85857 -115.41285 14821 ft 411 kts 349°
2026-04-21 22:21 35.88715 -115.41680 14724 ft 413 kts 354°
2026-04-21 22:22 35.91604 -115.41464 14655 ft 417 kts
2026-04-21 22:22 35.94354 -115.40433 14557 ft 401 kts 24°
2026-04-21 22:22 35.96779 -115.38769 14349 ft 385 kts 33°
2026-04-21 22:22 35.98830 -115.36683 13855 ft 378 kts 50°
2026-04-21 22:23 36.00309 -115.34065 13292 ft 369 kts 69°
2026-04-21 22:23 36.01117 -115.31083 12694 ft 357 kts 86°
2026-04-21 22:23 36.01254 -115.28110 12113 ft 345 kts 99°
2026-04-21 22:23 36.01089 -115.25178 11707 ft 336 kts 100°
2026-04-21 22:24 36.00950 -115.22301 11256 ft 332 kts 99°
2026-04-21 22:24 36.00830 -115.19425 10806 ft 327 kts 99°
2026-04-21 22:24 36.00700 -115.16625 10379 ft 322 kts 99°
2026-04-21 22:24 36.00583 -115.14271 10020 ft 319 kts 99°
2026-04-21 22:25 36.00432 -115.11268 9560 ft 315 kts 99°
2026-04-21 22:25 36.00309 -115.08705 9160 ft 311 kts 99°
2026-04-21 22:25 36.00177 -115.05975 8720 ft 309 kts 99°
2026-04-21 22:25 36.00045 -115.03316 8306 ft 305 kts 99°
2026-04-21 22:26 35.99927 -115.00693 8054 ft 297 kts 97°
2026-04-21 22:26 35.99929 -114.98195 8032 ft 281 kts 96°
2026-04-21 22:26 35.99941 -114.95854 8036 ft 263 kts 96°
2026-04-21 22:26 35.99945 -114.93629 8018 ft 259 kts 96°
2026-04-21 22:27 36.00148 -114.91381 8003 ft 269 kts 75°
2026-04-21 22:27 36.01280 -114.89498 8003 ft 281 kts 38°
2026-04-21 22:27 36.03135 -114.88650 7951 ft 283 kts
2026-04-21 22:27 36.05049 -114.89039 7920 ft 276 kts 331°
2026-04-21 22:28 36.06549 -114.90421 7839 ft 267 kts 302°
2026-04-21 22:28 36.07342 -114.92471 7164 ft 267 kts 271°
2026-04-21 22:28 36.07403 -114.94791 6353 ft 277 kts 262°
2026-04-21 22:28 36.07373 -114.97251 5516 ft 291 kts 264°
2026-04-21 22:29 36.07369 -114.99771 4673 ft 297 kts 264°
2026-04-21 22:29 36.07370 -115.02296 4107 ft 286 kts 265°
2026-04-21 22:29 36.07376 -115.04613 4230 ft 241 kts 264°
2026-04-21 22:29 36.07396 -115.06321 4665 ft 166 kts 262°
2026-04-21 22:30 36.07468 -115.07695 4191 ft 160 kts 263°
2026-04-21 22:30 36.07478 -115.09067 3621 ft 158 kts 257°
2026-04-21 22:30 36.07413 -115.10425 2953 ft 163 kts 259°
2026-04-21 22:30 36.07396 -115.11815 2398 ft 158 kts 258°
2026-04-21 22:31 36.07378 -115.13118 2115 ft 135 kts 258°